Flag for U.S.A. Weather past 2 weeks in Carrollton, Texas, U.S.A.

Now
48 °F

Overcast.


Feels Like: 44 °F
Forecast: 45 / 54 °F
Wind: 8 mph from Southeast

Location: Dallas Love Field

Current Time: Dec 21, 2014 at 5:07:25 AM

Latest Report: Dec 21, 2014 at 3:53 AM


Visibility: 8 mi

Pressure: 30.12 "Hg

Humidity: 86%

Dew point: 44 °F

Location of CarrolltonLocation

Historic Weather in Carrollton — Graph

°F

Carrollton temperature yesterday

Maximum temperature yesterday: 48 °F (at 2:53 PM)
Minimum temperature yesterday: 46 °F (at 2:53 AM)
Average temperature yesterday: 47 °F

Past Weeks' High & Low Weather Summary

 TemperatureHumidityPressure
High71 °F (Dec 13, 1:53 PM)100% (Dec 9, 5:53 AM)30.42 "Hg (Dec 9, 5:53 AM)
Low41 °F (Dec 9, 3:00 AM)31% (Dec 15, 3:53 PM)29.78 "Hg (Dec 14, 5:53 PM)
Average53 °F77%30.19 "Hg
* Reported Dec 6 3:53 AM — Dec 21 3:53 AM, Carrollton, Weather by CustomWeather, © 2014

Note: Actual official high and low records may vary slightly from our data, if they occured in-between our weather recording intervals... More about our weather records

Advertising

Carrollton weather history for previous 24 hours

 ConditionsComfort  
Time TempWeatherWind HumidityBarometerVisibility
3:53 AM
Dec 21
48 °FOvercast.8 mph86%30.12 "Hg8 mi
2:53 AM48 °FOvercast.10 mph86%30.14 "Hg7 mi
1:53 AM48 °FFog.6 mph89%30.15 "Hg6 mi
12:53 AM48 °FFog.7 mph86%30.16 "Hg6 mi
11:53 PM
Dec 20
48 °FMostly cloudy.6 mph86%30.18 "Hg7 mi
10:53 PM48 °FOvercast.6 mph86%30.19 "Hg7 mi
9:53 PM48 °FOvercast.6 mph86%30.19 "Hg7 mi
8:53 PM48 °FOvercast.5 mph83%30.19 "Hg7 mi
7:53 PM48 °FOvercast.5 mph80%30.19 "Hg7 mi
6:53 PM48 °FOvercast.5 mph80%30.18 "Hg9 mi
5:53 PM48 °FOvercast.3 mph80%30.18 "Hg9 mi
4:53 PM48 °FOvercast.No wind80%30.18 "Hg8 mi
3:53 PM48 °FOvercast.3 mph80%30.19 "Hg9 mi
2:53 PM48 °FMore clouds than sun.3 mph80%30.19 "Hg8 mi
1:53 PM47 °FMostly cloudy.No wind83%30.20 "Hg7 mi
12:53 PM47 °FMostly cloudy.5 mph83%30.22 "Hg7 mi
11:53 AM46 °FDrizzle. Fog.5 mph86%30.25 "Hg6 mi
10:53 AM46 °FDrizzle. Fog.6 mph89%30.27 "Hg5 mi
10:01 AM46 °FDrizzle. Fog.6 mph89%30.27 "Hg4 mi
9:53 AM46 °FDrizzle. Fog.6 mph89%30.26 "Hg4 mi
8:53 AM46 °FDrizzle. Fog.5 mph86%30.25 "Hg4 mi
7:53 AM46 °FFog.3 mph86%30.24 "Hg5 mi
6:53 AM46 °FFog.6 mph86%30.23 "Hg6 mi
5:53 AM46 °FFog.6 mph86%30.22 "Hg5 mi
Weather by CustomWeather, © 2014

See weather overviewHow to use our weather pages